When you browse on this site, cookies collect data to enhance your experience and personalize the content and advertising you see.
Visit our Privacy Policy to learn more. By continuing to use the site, you agree to this use of cookies and data.
EN

Hourly Weather Altoona

Today, 8 August, Saturday

Time Temperature Precipitation Wind Pressure Humidity
00:00 +17°C° 0 mm 0 mps 732 mmHg 93%
01:00 +17°C° 0 mm 0 mps 732 mmHg 93%
02:00 +16°C° 0 mm 0 mps 732 mmHg 93%
03:00 +16°C° 0 mm 0 mps 732 mmHg 93%
04:00 +16°C° 0 mm 0 mps 731 mmHg 93%
05:00 +16°C° 0 mm 0 mps 732 mmHg 92%
06:00 +17°C° 0 mm 0 mps 732 mmHg 92%
07:00 +18°C° 0 mm 0 mps 733 mmHg 91%
08:00 +21°C° 0 mm 0 mps 733 mmHg 80%
09:00 +24°C° 0 mm 0 mps 733 mmHg 70%
10:00 +26°C° 0 mm 0 mps 733 mmHg 60%
11:00 +29°C° 0 mm 1 mps 733 mmHg 56%
12:00 +30°C° 0 mm 1 mps 733 mmHg 52%
13:00 +30°C° 0 mm 1 mps 733 mmHg 48%
14:00 +30°C° 0 mm 1 mps 733 mmHg 50%
15:00 +30°C° 0 mm 2 mps 732 mmHg 51%
16:00 +29°C° 0 mm 2 mps 732 mmHg 52%
17:00 +28°C° 0 mm 2 mps 732 mmHg 60%
18:00 +26°C° 0 mm 1 mps 732 mmHg 69%
19:00 +24°C° 0 mm 1 mps 732 mmHg 78%
20:00 +23°C° 0 mm 1 mps 732 mmHg 81%
21:00 +21°C° 0 mm 1 mps 732 mmHg 83%
22:00 +20°C° 0 mm 1 mps 732 mmHg 86%
23:00 +20°C° 0 mm 1 mps 732 mmHg 88%

Tomorrow, 9 August, Sunday

Time Temperature Precipitation Wind Pressure Humidity
00:00 +19°C° 0 mm 1 mps 732 mmHg 90%
01:00 +17°C° 0 mm 0 mps 732 mmHg 93%
02:00 +16°C° 0 mm 0 mps 732 mmHg 93%
03:00 +16°C° 0 mm 0 mps 732 mmHg 93%
04:00 +16°C° 0 mm 0 mps 731 mmHg 93%
05:00 +17°C° 0 mm 0 mps 732 mmHg 90%
06:00 +18°C° 0 mm 0 mps 732 mmHg 87%
07:00 +19°C° 0 mm 0 mps 733 mmHg 84%
08:00 +23°C° 0 mm 1 mps 733 mmHg 74%
09:00 +26°C° 0 mm 1 mps 733 mmHg 63%
10:00 +28°C° 0 mm 1 mps 733 mmHg 53%
11:00 +29°C° 0 mm 2 mps 733 mmHg 50%
12:00 +30°C° 0 mm 2 mps 733 mmHg 46%
13:00 +31°C° 0 mm 2 mps 733 mmHg 42%
14:00 +31°C° 0 mm 2 mps 732 mmHg 44%
15:00 +31°C° 0 mm 2 mps 732 mmHg 45%
16:00 +31°C° 0 mm 2 mps 731 mmHg 46%
17:00 +29°C° 0 mm 2 mps 731 mmHg 56%
18:00 +27°C° 0 mm 1 mps 731 mmHg 65%
19:00 +25°C° 0 mm 1 mps 731 mmHg 75%
20:00 +24°C° 0 mm 1 mps 731 mmHg 76%
21:00 +23°C° 0 mm 1 mps 731 mmHg 78%
22:00 +22°C° 0 mm 1 mps 731 mmHg 80%
23:00 +21°C° 0 mm 1 mps 731 mmHg 80%

Day after tomorrow, 10 August, Monday

Time Temperature Precipitation Wind Pressure Humidity
00:00 +21°C° 0 mm 1 mps 731 mmHg 80%
01:00 +20°C° 0 mm 1 mps 731 mmHg 80%
02:00 +20°C° 0 mm 1 mps 731 mmHg 81%
03:00 +18°C° 0 mm 0 mps 731 mmHg 82%
04:00 +17°C° 0 mm 0 mps 730 mmHg 83%
05:00 +18°C° 0 mm 0 mps 731 mmHg 81%
06:00 +19°C° 0 mm 0 mps 731 mmHg 79%
07:00 +20°C° 0 mm 0 mps 731 mmHg 76%
08:00 +23°C° 0 mm 0 mps 731 mmHg 68%
09:00 +26°C° 0 mm 0 mps 731 mmHg 60%
10:00 +31°C° 0 mm 1 mps 731 mmHg 52%
11:00 +31°C° 0 mm 1 mps 731 mmHg 48%
12:00 +32°C° 0 mm 1 mps 731 mmHg 43%
13:00 +34°C° 0 mm 2 mps 731 mmHg 38%
14:00 +34°C° 0 mm 2 mps 730 mmHg 39%
15:00 +34°C° 0 mm 2 mps 730 mmHg 40%
16:00 +34°C° 0 mm 2 mps 729 mmHg 41%
17:00 +30°C° 0 mm 2 mps 729 mmHg 50%
18:00 +28°C° 0 mm 1 mps 729 mmHg 60%
19:00 +26°C° 0 mm 1 mps 729 mmHg 69%
20:00 +25°C° 0 mm 1 mps 729 mmHg 70%
21:00 +24°C° 0 mm 1 mps 729 mmHg 70%
22:00 +21°C° 0 mm 0 mps 729 mmHg 71%
23:00 +20°C° 0 mm 0 mps 729 mmHg 74%

11 August, Tuesday

Time Temperature Precipitation Wind Pressure Humidity
00:00 +20°C° 0 mm 0 mps 729 mmHg 77%
01:00 +20°C° 0 mm 0 mps 729 mmHg 80%
02:00 +19°C° 0 mm 0 mps 729 mmHg 83%
03:00 +19°C° 0 mm 0 mps 728 mmHg 87%
04:00 +21°C° 0 mm 1 mps 728 mmHg 90%
05:00 +20°C° 0 mm 0 mps 729 mmHg 88%
06:00 +21°C° 0 mm 0 mps 729 mmHg 85%
07:00 +22°C° 0 mm 0 mps 729 mmHg 82%
08:00 +26°C° 0 mm 1 mps 729 mmHg 71%
09:00 +29°C° 0 mm 1 mps 729 mmHg 60%
10:00 +31°C° 0 mm 2 mps 729 mmHg 49%
11:00 +32°C° 0 mm 2 mps 729 mmHg 46%
12:00 +34°C° 0 mm 2 mps 729 mmHg 43%
13:00 +35°C° 0 mm 3 mps 729 mmHg 40%
14:00 +35°C° 0.1 mm 3 mps 729 mmHg 43%
15:00 +34°C° 0.1 mm 3 mps 728 mmHg 46%
16:00 +34°C° 0.1 mm 3 mps 728 mmHg 49%
17:00 +31°C° 0.4 mm 2 mps 728 mmHg 60%
18:00 +29°C° 0.4 mm 1 mps 728 mmHg 70%
19:00 +26°C° 0.4 mm 1 mps 728 mmHg 81%
20:00 +26°C° 0.3 mm 1 mps 728 mmHg 84%
21:00 +25°C° 0.3 mm 1 mps 728 mmHg 87%
22:00 +24°C° 0.3 mm 1 mps 729 mmHg 90%
23:00 +21°C° 0 mm 0 mps 729 mmHg 90%

12 August, Wednesday

Time Temperature Precipitation Wind Pressure Humidity
00:00 +21°C° 0 mm 0 mps 729 mmHg 90%
01:00 +21°C° 0 mm 0 mps 728 mmHg 91%
02:00 +21°C° 0 mm 0 mps 728 mmHg 91%
03:00 +20°C° 0 mm 0 mps 728 mmHg 92%
04:00 +20°C° 0 mm 0 mps 728 mmHg 93%
05:00 +21°C° 0.3 mm 0 mps 729 mmHg 92%
06:00 +21°C° 0.3 mm 0 mps 729 mmHg 92%
07:00 +22°C° 0.3 mm 0 mps 730 mmHg 91%
08:00 +24°C° 0.3 mm 0 mps 730 mmHg 84%
09:00 +28°C° 0.3 mm 1 mps 730 mmHg 76%
10:00 +31°C° 0.3 mm 1 mps 730 mmHg 68%
11:00 +32°C° 0.3 mm 1 mps 730 mmHg 62%
12:00 +34°C° 0.3 mm 2 mps 729 mmHg 56%
13:00 +35°C° 0.3 mm 3 mps 729 mmHg 51%
14:00 +34°C° 0.2 mm 2 mps 729 mmHg 54%
15:00 +34°C° 0.2 mm 2 mps 729 mmHg 56%
16:00 +32°C° 0.2 mm 2 mps 729 mmHg 59%
17:00 +29°C° 3.1 mm 2 mps 729 mmHg 71%
18:00 +26°C° 3.1 mm 2 mps 729 mmHg 83%
19:00 +23°C° 3.1 mm 2 mps 729 mmHg 96%
20:00 +23°C° 4.7 mm 2 mps 729 mmHg 97%
21:00 +21°C° 4.7 mm 2 mps 729 mmHg 97%
22:00 +21°C° 4.7 mm 2 mps 730 mmHg 98%
23:00 +22°C° 0.3 mm 1 mps 730 mmHg 98%

13 August, Thursday

Time Temperature Precipitation Wind Pressure Humidity
00:00 +22°C° 0.3 mm 1 mps 729 mmHg 98%
01:00 +22°C° 0.3 mm 1 mps 729 mmHg 98%
02:00 +22°C° 0 mm 1 mps 729 mmHg 97%
03:00 +22°C° 0 mm 1 mps 729 mmHg 97%
04:00 +21°C° 0 mm 1 mps 729 mmHg 97%
05:00 +22°C° 0.3 mm 1 mps 729 mmHg 97%
06:00 +22°C° 0.3 mm 1 mps 729 mmHg 97%
07:00 +23°C° 0.3 mm 1 mps 730 mmHg 97%
08:00 +21°C° 0.2 mm 0 mps 730 mmHg 96%
09:00 +22°C° 0.2 mm 0 mps 730 mmHg 96%
10:00 +22°C° 0.2 mm 0 mps 730 mmHg 95%
11:00 +27°C° 0.1 mm 1 mps 730 mmHg 84%
12:00 +29°C° 0.1 mm 1 mps 730 mmHg 73%
13:00 +32°C° 0.1 mm 1 mps 730 mmHg 62%
14:00 +31°C° 0.3 mm 1 mps 729 mmHg 64%
15:00 +31°C° 0.3 mm 1 mps 729 mmHg 67%
16:00 +31°C° 0.3 mm 1 mps 729 mmHg 69%
17:00 +29°C° 2.2 mm 1 mps 729 mmHg 76%
18:00 +27°C° 2.2 mm 1 mps 729 mmHg 83%
19:00 +25°C° 2.2 mm 1 mps 729 mmHg 90%
20:00 +25°C° 1.1 mm 1 mps 729 mmHg 91%
21:00 +24°C° 1.1 mm 1 mps 729 mmHg 93%
22:00 +24°C° 1.1 mm 1 mps 729 mmHg 94%
23:00 +24°C° 0.5 mm 1 mps 729 mmHg 94%
Show more